THY39V WMKK-LTFM

Flight info

Callsign THY39V
Flight time N/A
Altitude 34000
Route BIKDU1D BIKDU Y501 RINBA Y502 DUBAX R325 PUT L759 MIPAK/N0501F360 L759 IBUDA A791 ASOPO P628 ISKEN/N0499F380 P628 RK G202 ZB/N0490F370 G325 REGET/N0493F380 N644 LEMOD A909 BODBA/N0484F400 A909 RODAR M11 ERLEV L850 ADEKI N644 BADIR DCT NOLGA UN61 TBN UM11 TERME UW71 CRM UM688 EKSUK UL852 EVPIM UT304 LUUPU UT310 NUGBA
Aircraft A359/H-SDE2E3GHIJ1J3J4J5LM1ORWXY/LB1D1

Departure

Time 2026-05-04 23:25
Airport Kuala Lumpur International Airport (WMKK)

Arrival

Time N/A
Airport İstanbul Airport (LTFM)
Time Latitude Longitude Altitude Speed Heading
2026-05-04 21:22 2.75010 101.71295 79 ft 0 kts 236°
2026-05-04 22:59 2.75012 101.71297 79 ft 2 kts 236°
2026-05-04 22:59 2.75024 101.71315 84 ft 3 kts 236°
2026-05-04 22:59 2.75037 101.71334 84 ft 3 kts 236°
2026-05-04 22:59 2.75047 101.71350 84 ft 3 kts 236°
2026-05-04 23:00 2.75057 101.71366 84 ft 3 kts 220°
2026-05-04 23:00 2.75062 101.71372 84 ft 3 kts 175°
2026-05-04 23:00 2.75066 101.71373 84 ft 3 kts 133°
2026-05-04 23:00 2.75081 101.71356 84 ft 3 kts 133°
2026-05-04 23:01 2.75096 101.71340 84 ft 3 kts 144°
2026-05-04 23:01 2.75099 101.71338 84 ft 1 kts 146°
2026-05-04 23:06 2.75090 101.71345 84 ft 4 kts 146°
2026-05-04 23:07 2.75059 101.71366 84 ft 6 kts 146°
2026-05-04 23:07 2.75022 101.71393 83 ft 6 kts 131°
2026-05-04 23:07 2.75025 101.71428 82 ft 5 kts 60°
2026-05-04 23:07 2.75047 101.71462 83 ft 6 kts 57°
2026-05-04 23:08 2.75074 101.71502 84 ft 8 kts 55°
2026-05-04 23:08 2.75108 101.71552 84 ft 9 kts 56°
2026-05-04 23:08 2.75147 101.71611 82 ft 11 kts 56°
2026-05-04 23:08 2.75148 101.71651 81 ft 5 kts 121°
2026-05-04 23:09 2.75121 101.71673 81 ft 5 kts 146°
2026-05-04 23:09 2.75086 101.71697 83 ft 6 kts 146°
2026-05-04 23:09 2.75046 101.71723 85 ft 7 kts 146°
2026-05-04 23:09 2.75003 101.71752 84 ft 8 kts 146°
2026-05-04 23:10 2.74955 101.71785 85 ft 9 kts 146°
2026-05-04 23:10 2.74900 101.71822 85 ft 10 kts 146°
2026-05-04 23:10 2.74838 101.71863 87 ft 12 kts 146°
2026-05-04 23:10 2.74765 101.71912 86 ft 14 kts 146°
2026-05-04 23:11 2.74708 101.71950 86 ft 9 kts 146°
2026-05-04 23:11 2.74655 101.71930 85 ft 11 kts 238°
2026-05-04 23:11 2.74610 101.71856 85 ft 14 kts 237°
2026-05-04 23:11 2.74554 101.71771 84 ft 16 kts 236°
2026-05-04 23:12 2.74489 101.71674 82 ft 17 kts 236°
2026-05-04 23:12 2.74422 101.71575 83 ft 17 kts 236°
2026-05-04 23:12 2.74353 101.71473 83 ft 17 kts 236°
2026-05-04 23:12 2.74286 101.71373 83 ft 18 kts 236°
2026-05-04 23:13 2.74217 101.71272 83 ft 18 kts 235°
2026-05-04 23:13 2.74148 101.71172 84 ft 18 kts 235°
2026-05-04 23:13 2.74079 101.71071 84 ft 18 kts 236°
2026-05-04 23:13 2.74010 101.70970 83 ft 18 kts 236°
2026-05-04 23:14 2.73941 101.70869 70 ft 18 kts 236°
2026-05-04 23:14 2.73873 101.70768 69 ft 17 kts 235°
2026-05-04 23:14 2.73821 101.70693 68 ft 11 kts 236°
2026-05-04 23:14 2.73771 101.70620 67 ft 13 kts 235°
2026-05-04 23:15 2.73730 101.70570 56 ft 9 kts 214°
2026-05-04 23:15 2.73674 101.70580 62 ft 8 kts 153°
2026-05-04 23:15 2.73627 101.70609 63 ft 8 kts 148°
2026-05-04 23:15 2.73579 101.70640 60 ft 9 kts 145°
2026-05-04 23:16 2.73525 101.70676 64 ft 10 kts 146°
2026-05-04 23:16 2.73461 101.70720 58 ft 12 kts 146°
2026-05-04 23:16 2.73390 101.70767 59 ft 13 kts 146°
2026-05-04 23:16 2.73310 101.70820 58 ft 15 kts 146°
2026-05-04 23:17 2.73214 101.70884 57 ft 18 kts 146°
2026-05-04 23:17 2.73108 101.70955 59 ft 19 kts 146°
2026-05-04 23:17 2.73000 101.71028 52 ft 19 kts 145°
2026-05-04 23:17 2.72887 101.71103 52 ft 20 kts 147°
2026-05-04 23:18 2.72776 101.71177 53 ft 18 kts 147°
2026-05-04 23:18 2.72671 101.71247 56 ft 18 kts 146°
2026-05-04 23:18 2.72568 101.71317 53 ft 18 kts 147°
2026-05-04 23:18 2.72473 101.71381 56 ft 14 kts 146°
2026-05-04 23:19 2.72405 101.71426 57 ft 12 kts 146°
2026-05-04 23:19 2.72349 101.71458 57 ft 8 kts 165°
2026-05-04 23:19 2.72306 101.71431 54 ft 8 kts 229°
2026-05-04 23:19 2.72250 101.71416 56 ft 10 kts 160°
2026-05-04 23:20 2.72178 101.71465 57 ft 16 kts 145°
2026-05-04 23:20 2.72072 101.71536 54 ft 21 kts 146°
2026-05-04 23:20 2.71934 101.71630 50 ft 27 kts 146°
2026-05-04 23:20 2.71771 101.71739 51 ft 28 kts 146°
2026-05-04 23:21 2.71631 101.71833 52 ft 13 kts 146°
2026-05-04 23:21 2.71557 101.71882 55 ft 12 kts 146°
2026-05-04 23:21 2.71492 101.71925 53 ft 11 kts 146°
2026-05-04 23:21 2.71439 101.71939 59 ft 7 kts 194°
2026-05-04 23:22 2.71411 101.71912 58 ft 5 kts 237°
2026-05-04 23:22 2.71393 101.71884 58 ft 5 kts 237°
2026-05-04 23:22 2.71373 101.71853 54 ft 6 kts 237°
2026-05-04 23:22 2.71350 101.71811 57 ft 6 kts 259°
2026-05-04 23:23 2.71371 101.71780 54 ft 6 kts 317°
2026-05-04 23:23 2.71399 101.71759 56 ft 0 kts 324°
2026-05-04 23:24 2.71474 101.71707 54 ft 37 kts 326°
2026-05-04 23:24 2.71869 101.71442 53 ft 98 kts 326°
2026-05-04 23:24 2.72588 101.70959 56 ft 150 kts 326°
2026-05-04 23:24 2.73576 101.70295 228 ft 179 kts 326°
2026-05-04 23:25 2.74531 101.69620 983 ft 167 kts 324°
2026-05-04 23:25 2.75519 101.68880 1267 ft 186 kts 323°
2026-05-04 23:25 2.76499 101.67978 1456 ft 203 kts 313°
2026-05-04 23:25 2.77488 101.66859 1667 ft 220 kts 310°
2026-05-04 23:26 2.78496 101.65666 1901 ft 237 kts 310°
2026-05-04 23:26 2.79612 101.64337 2134 ft 254 kts 310°
2026-05-04 23:26 2.80765 101.62966 2621 ft 260 kts 310°
2026-05-04 23:26 2.81940 101.61568 3180 ft 263 kts 310°
2026-05-04 23:27 2.83108 101.60179 3728 ft 265 kts 310°
2026-05-04 23:27 2.84302 101.58760 4276 ft 268 kts 310°
2026-05-04 23:27 2.85509 101.57325 4806 ft 271 kts 310°
2026-05-04 23:27 2.86744 101.55885 5335 ft 274 kts 313°
2026-05-04 23:28 2.88189 101.54639 5863 ft 276 kts 324°
2026-05-04 23:28 2.89756 101.53515 6419 ft 278 kts 325°
2026-05-04 23:28 2.91343 101.52395 6915 ft 281 kts 325°
2026-05-04 23:28 2.92947 101.51256 7434 ft 284 kts 325°
2026-05-04 23:29 2.94564 101.50105 7972 ft 287 kts 325°
2026-05-04 23:29 2.96198 101.48938 8530 ft 289 kts 324°
2026-05-04 23:29 2.97850 101.47758 9098 ft 292 kts 324°
2026-05-04 23:29 2.99513 101.46568 9663 ft 296 kts 324°
2026-05-04 23:30 3.01197 101.45364 10152 ft 299 kts 325°
2026-05-04 23:30 3.02929 101.44125 10426 ft 313 kts 325°
2026-05-04 23:30 3.04736 101.42833 10681 ft 326 kts 325°
2026-05-04 23:30 3.06594 101.41503 10905 ft 338 kts 325°
2026-05-04 23:31 3.08539 101.40112 11137 ft 350 kts 325°
2026-05-04 23:31 3.10556 101.38669 11373 ft 361 kts 325°
2026-05-04 23:31 3.12681 101.37249 11582 ft 371 kts 332°
2026-05-04 23:31 3.15130 101.36421 11873 ft 376 kts 354°
2026-05-04 23:32 3.17746 101.36416 12295 ft 377 kts
2026-05-04 23:32 3.20375 101.36641 12711 ft 380 kts
2026-05-04 23:32 3.22123 101.36797 12979 ft 382 kts
2026-05-04 23:32 3.24785 101.37028 13397 ft 385 kts
2026-05-04 23:33 3.27464 101.37254 13797 ft 387 kts
2026-05-04 23:33 3.31037 101.37549 14272 ft 390 kts
2026-05-04 23:33 3.33751 101.37772 14628 ft 393 kts
2026-05-04 23:33 3.35596 101.37923 14869 ft 394 kts
2026-05-04 23:34 3.38308 101.38143 15217 ft 397 kts
2026-05-04 23:34 3.41064 101.38367 15570 ft 399 kts
2026-05-04 23:34 3.43842 101.38592 15922 ft 401 kts
2026-05-04 23:34 3.46635 101.38819 16250 ft 404 kts
2026-05-04 23:35 3.49446 101.39047 16607 ft 406 kts
2026-05-04 23:35 3.52276 101.39277 16951 ft 408 kts
2026-05-04 23:35 3.55111 101.39507 17272 ft 411 kts
2026-05-04 23:35 3.57966 101.39739 17614 ft 413 kts
2026-05-04 23:36 3.60839 101.39972 17949 ft 415 kts
2026-05-04 23:36 3.63719 101.40206 18270 ft 417 kts
2026-05-04 23:36 3.66620 101.40442 18552 ft 419 kts
2026-05-04 23:36 3.69533 101.40678 18835 ft 421 kts
2026-05-04 23:37 3.72461 101.40915 19132 ft 423 kts
2026-05-04 23:37 3.75401 101.41154 19416 ft 425 kts
2026-05-04 23:37 3.78316 101.41391 19709 ft 426 kts
2026-05-04 23:37 3.81320 101.41601 19994 ft 428 kts
2026-05-04 23:38 3.84267 101.41433 20259 ft 432 kts 352°
2026-05-04 23:38 3.87185 101.40653 20535 ft 435 kts 341°
2026-05-04 23:38 3.90008 101.39550 20820 ft 437 kts 338°
2026-05-04 23:38 3.92806 101.38319 21104 ft 439 kts 336°
2026-05-04 23:39 3.95591 101.37035 21386 ft 441 kts 336°
2026-05-04 23:39 3.98380 101.35739 21679 ft 443 kts 336°
2026-05-04 23:39 4.01192 101.34444 21941 ft 445 kts 336°
2026-05-04 23:39 4.04012 101.33161 22219 ft 447 kts 336°
2026-05-04 23:40 4.06861 101.31880 22506 ft 449 kts 337°
2026-05-04 23:40 4.09718 101.30605 22780 ft 451 kts 337°
2026-05-04 23:40 4.12590 101.29327 23056 ft 452 kts 337°
2026-05-04 23:40 4.15477 101.28045 23321 ft 454 kts 337°
2026-05-04 23:41 4.18339 101.26774 23582 ft 456 kts 337°
2026-05-04 23:41 4.21285 101.25465 23815 ft 458 kts 337°
2026-05-04 23:41 4.24160 101.24186 24051 ft 459 kts 337°
2026-05-04 23:41 4.27082 101.22886 24277 ft 461 kts 337°
2026-05-04 23:42 4.30025 101.21576 24522 ft 462 kts 337°
2026-05-04 23:42 4.32969 101.20265 24767 ft 464 kts 337°
2026-05-04 23:42 4.35923 101.18949 25022 ft 465 kts 336°
2026-05-04 23:42 4.38884 101.17630 25270 ft 466 kts 337°
2026-05-04 23:43 4.41858 101.16305 25514 ft 468 kts 337°
2026-05-04 23:43 4.44845 101.14975 25773 ft 470 kts 337°
2026-05-04 23:43 4.47836 101.13643 26053 ft 472 kts 337°
2026-05-04 23:43 4.50843 101.12303 26338 ft 473 kts 336°
2026-05-04 23:44 4.53858 101.10960 26636 ft 475 kts 337°
2026-05-04 23:44 4.56884 101.09612 26921 ft 477 kts 337°
2026-05-04 23:44 4.59932 101.08267 27214 ft 479 kts 337°
2026-05-04 23:44 4.62999 101.06940 27514 ft 480 kts 338°
2026-05-04 23:45 4.66075 101.05621 27806 ft 482 kts 338°
2026-05-04 23:45 4.69171 101.04295 28101 ft 484 kts 338°
2026-05-04 23:45 4.72274 101.02965 28381 ft 486 kts 338°
2026-05-04 23:45 4.75395 101.01625 28674 ft 488 kts 338°
2026-05-04 23:46 4.78519 101.00280 28966 ft 490 kts 338°
2026-05-04 23:46 4.81663 100.98926 29224 ft 492 kts 338°
2026-05-04 23:46 4.84812 100.97568 29504 ft 493 kts 338°
2026-05-04 23:46 4.87967 100.96207 29778 ft 495 kts 338°
2026-05-04 23:47 4.91136 100.94840 30023 ft 497 kts 338°
2026-05-04 23:47 4.94319 100.93467 30226 ft 498 kts 338°
2026-05-04 23:47 4.97472 100.92106 30435 ft 500 kts 338°
2026-05-04 23:47 5.00674 100.90728 30648 ft 501 kts 338°
2026-05-04 23:48 5.03881 100.89347 30860 ft 502 kts 337°
2026-05-04 23:48 5.07092 100.87959 31066 ft 503 kts 337°
2026-05-04 23:48 5.10304 100.86568 31271 ft 504 kts 337°
2026-05-04 23:48 5.13529 100.85173 31457 ft 505 kts 337°
2026-05-04 23:49 5.16759 100.83775 31691 ft 505 kts 337°
2026-05-04 23:49 5.19983 100.82380 31972 ft 504 kts 337°
2026-05-04 23:49 5.23203 100.80987 32233 ft 503 kts 337°
2026-05-04 23:49 5.26414 100.79598 32501 ft 502 kts 337°
2026-05-04 23:50 5.29621 100.78212 32767 ft 501 kts 337°
2026-05-04 23:50 5.32816 100.76830 33013 ft 500 kts 337°
2026-05-04 23:50 5.36001 100.75432 33248 ft 499 kts 335°
2026-05-04 23:50 5.39081 100.73826 33495 ft 498 kts 332°
2026-05-04 23:51 5.42127 100.72150 33741 ft 498 kts 331°
2026-05-04 23:51 5.45151 100.70453 33865 ft 499 kts 330°
2026-05-04 23:51 5.51206 100.67019 33876 ft 500 kts 330°
2026-05-04 23:52 5.57258 100.63583 33875 ft 500 kts 330°
2026-05-04 23:52 5.63276 100.60176 33871 ft 500 kts 331°
2026-05-04 23:53 5.69337 100.56747 33873 ft 500 kts 331°
2026-05-04 23:53 5.75388 100.53325 33876 ft 499 kts 331°
2026-05-04 23:54 5.81432 100.49886 33873 ft 499 kts 330°
2026-05-04 23:54 5.87423 100.46283 33875 ft 498 kts 329°
2026-05-04 23:55 5.93356 100.42671 33869 ft 499 kts 329°
2026-05-04 23:56 6.02255 100.37303 33863 ft 499 kts 329°
2026-05-04 23:56 6.08220 100.33722 33860 ft 500 kts 329°
2026-05-04 23:57 6.14195 100.30136 33860 ft 500 kts 329°
2026-05-04 23:57 6.20162 100.26552 33857 ft 500 kts 329°
2026-05-04 23:58 6.26137 100.22962 33864 ft 500 kts 329°
2026-05-04 23:58 6.32103 100.19376 33869 ft 499 kts 329°
2026-05-04 23:59 6.38062 100.15794 33874 ft 498 kts 329°
2026-05-04 23:59 6.43721 100.11868 33881 ft 498 kts 318°
2026-05-05 00:00 6.48559 100.06894 33873 ft 497 kts 313°
2026-05-05 00:00 6.53204 100.01754 33877 ft 497 kts 312°
2026-05-05 00:01 6.57831 99.96590 33877 ft 496 kts 312°
2026-05-05 00:01 6.62476 99.91437 33874 ft 496 kts 313°
2026-05-05 00:02 6.67118 99.86306 33877 ft 496 kts 313°
2026-05-05 00:02 6.71770 99.81169 33874 ft 496 kts 313°
2026-05-05 00:03 6.76408 99.76044 33873 ft 496 kts 313°
2026-05-05 00:03 6.81059 99.70901 33873 ft 496 kts 313°
2026-05-05 00:04 6.85706 99.65761 33874 ft 496 kts 313°
2026-05-05 00:04 6.90348 99.60625 33872 ft 496 kts 313°
2026-05-05 00:05 6.94995 99.55482 33873 ft 496 kts 313°
2026-05-05 00:05 6.99614 99.50369 33871 ft 497 kts 313°
2026-05-05 00:06 7.04304 99.45266 33869 ft 496 kts 314°
2026-05-05 00:06 7.09071 99.40221 33872 ft 496 kts 314°
2026-05-05 00:07 7.13802 99.35212 33873 ft 497 kts 314°
2026-05-05 00:07 7.18551 99.30158 33875 ft 497 kts 314°
2026-05-05 00:08 7.23298 99.25093 33871 ft 497 kts 314°
2026-05-05 00:08 7.28040 99.20030 33872 ft 497 kts 314°
2026-05-05 00:09 7.32784 99.14964 33875 ft 497 kts 314°
2026-05-05 00:09 7.37528 99.09898 33875 ft 497 kts 314°
2026-05-05 00:10 7.42275 99.04827 33875 ft 497 kts 314°
2026-05-05 00:10 7.46988 98.99789 33877 ft 497 kts 314°
2026-05-05 00:11 7.51755 98.94693 33879 ft 497 kts 314°
2026-05-05 00:11 7.56466 98.89655 33874 ft 497 kts 314°
2026-05-05 00:12 7.61207 98.84583 33871 ft 497 kts 314°
2026-05-05 00:12 7.65957 98.79500 33877 ft 498 kts 314°
2026-05-05 00:13 7.70711 98.74411 33874 ft 498 kts 314°
2026-05-05 00:13 7.75454 98.69319 33873 ft 498 kts 314°
2026-05-05 00:14 7.80195 98.64209 33874 ft 498 kts 314°
2026-05-05 00:14 7.84137 98.59976 33875 ft 498 kts 314°
2026-05-05 00:15 7.88884 98.54884 33871 ft 498 kts 314°
2026-05-05 00:15 7.93635 98.49787 33863 ft 498 kts 314°
2026-05-05 00:16 7.98386 98.44688 33862 ft 498 kts 314°
2026-05-05 00:16 8.03129 98.39595 33857 ft 498 kts 314°
2026-05-05 00:17 8.07874 98.34498 33858 ft 499 kts 314°
2026-05-05 00:17 8.12640 98.29396 33855 ft 499 kts 315°
2026-05-05 00:18 8.17710 98.24617 33855 ft 498 kts 319°
2026-05-05 00:18 8.22885 98.20017 33861 ft 499 kts 319°
2026-05-05 00:19 8.28054 98.15344 33866 ft 499 kts 319°
2026-05-05 00:19 8.33190 98.10622 33870 ft 499 kts 318°
2026-05-05 00:20 8.38308 98.05891 33878 ft 499 kts 318°
2026-05-05 00:20 8.43424 98.01160 33883 ft 498 kts 318°
2026-05-05 00:21 8.48536 97.96435 33884 ft 498 kts 318°
2026-05-05 00:21 8.53650 97.91712 33884 ft 498 kts 318°
2026-05-05 00:22 8.58756 97.86980 33881 ft 498 kts 318°
2026-05-05 00:22 8.63854 97.82253 33883 ft 498 kts 318°
2026-05-05 00:23 8.68964 97.77518 33884 ft 498 kts 318°
2026-05-05 00:23 8.74068 97.72787 33883 ft 498 kts 318°
2026-05-05 00:24 8.79175 97.68050 33882 ft 498 kts 318°
2026-05-05 00:24 8.84284 97.63312 33882 ft 498 kts 318°
2026-05-05 00:25 8.89390 97.58575 33881 ft 498 kts 317°
2026-05-05 00:25 8.94486 97.53819 33883 ft 498 kts 317°
2026-05-05 00:26 8.99583 97.49059 33882 ft 499 kts 317°
2026-05-05 00:26 9.04656 97.44324 33884 ft 499 kts 317°
2026-05-05 00:27 9.09766 97.39555 33883 ft 500 kts 317°
2026-05-05 00:27 9.14877 97.34784 33883 ft 500 kts 317°
2026-05-05 00:28 9.19988 97.30009 33884 ft 500 kts 317°
2026-05-05 00:28 9.25106 97.25228 33886 ft 501 kts 317°
2026-05-05 00:29 9.30226 97.20442 33888 ft 501 kts 317°
2026-05-05 00:29 9.35347 97.15652 33887 ft 501 kts 317°
2026-05-05 00:30 9.40458 97.10871 33886 ft 500 kts 317°
2026-05-05 00:30 9.45582 97.06075 33886 ft 500 kts 317°
2026-05-05 00:31 9.50694 97.01288 33887 ft 500 kts 317°
2026-05-05 00:31 9.55805 96.96501 33887 ft 500 kts 317°
2026-05-05 00:32 9.60918 96.91709 33888 ft 500 kts 317°
2026-05-05 00:32 9.66024 96.86922 33889 ft 500 kts 317°
2026-05-05 00:33 9.71136 96.82128 33884 ft 501 kts 317°
2026-05-05 00:33 9.76211 96.77366 33887 ft 500 kts 317°
2026-05-05 00:34 9.81313 96.72577 33884 ft 499 kts 317°
2026-05-05 00:34 9.86412 96.67789 33891 ft 499 kts 317°
2026-05-05 00:35 9.91506 96.63002 33891 ft 499 kts 317°
2026-05-05 00:35 9.96602 96.58212 33891 ft 499 kts 317°
2026-05-05 00:36 10.01517 96.53234 33888 ft 499 kts 313°
2026-05-05 00:36 10.06143 96.47975 33889 ft 500 kts 311°
2026-05-05 00:37 10.10736 96.42664 33886 ft 500 kts 311°
2026-05-05 00:37 10.15332 96.37344 33892 ft 501 kts 311°
2026-05-05 00:38 10.19930 96.32030 33890 ft 501 kts 311°
2026-05-05 00:38 10.24533 96.26715 33890 ft 501 kts 311°
2026-05-05 00:39 10.29135 96.21398 33891 ft 501 kts 311°
2026-05-05 00:39 10.33711 96.16109 33894 ft 501 kts 311°
2026-05-05 00:40 10.38306 96.10795 33895 ft 501 kts 311°
2026-05-05 00:40 10.42904 96.05474 33890 ft 501 kts 311°
2026-05-05 00:41 10.47503 96.00152 33890 ft 501 kts 311°
2026-05-05 00:41 10.52099 95.94828 33888 ft 501 kts 311°
2026-05-05 00:42 10.56694 95.89503 33893 ft 501 kts 311°
2026-05-05 00:42 10.61289 95.84177 33892 ft 500 kts 311°
2026-05-05 00:43 10.65874 95.78859 33893 ft 500 kts 311°
2026-05-05 00:43 10.70452 95.73546 33893 ft 499 kts 311°
2026-05-05 00:44 10.75027 95.68235 33893 ft 499 kts 311°
2026-05-05 00:44 10.79593 95.62930 33890 ft 498 kts 311°
2026-05-05 00:45 10.84157 95.57626 33890 ft 497 kts 311°
2026-05-05 00:45 10.88683 95.52363 33897 ft 497 kts 311°
2026-05-05 00:46 10.93266 95.47031 33894 ft 497 kts 311°
2026-05-05 00:46 10.97822 95.41729 33897 ft 498 kts 311°
2026-05-05 00:47 11.02360 95.36444 33898 ft 500 kts 311°
2026-05-05 00:47 11.06938 95.31109 33899 ft 501 kts 311°
2026-05-05 00:48 11.11526 95.25761 33894 ft 502 kts 311°
2026-05-05 00:48 11.16118 95.20406 33891 ft 502 kts 311°
2026-05-05 00:49 11.20713 95.15043 33890 ft 503 kts 311°
2026-05-05 00:49 11.25313 95.09673 33893 ft 503 kts 311°
2026-05-05 00:50 11.29908 95.04304 33890 ft 503 kts 311°
2026-05-05 00:50 11.34504 94.98932 33893 ft 502 kts 311°
2026-05-05 00:51 11.39102 94.93555 33894 ft 502 kts 311°
2026-05-05 00:51 11.43682 94.88196 33897 ft 501 kts 311°
2026-05-05 00:52 11.48256 94.82840 33894 ft 501 kts 311°
2026-05-05 00:52 11.52826 94.77486 33896 ft 500 kts 311°
2026-05-05 00:53 11.57397 94.72131 33894 ft 500 kts 311°
2026-05-05 00:53 11.61930 94.66815 33896 ft 500 kts 310°
2026-05-05 00:54 11.66493 94.61463 33893 ft 500 kts 310°
2026-05-05 00:54 11.71056 94.56106 33896 ft 500 kts 310°
2026-05-05 00:55 11.75627 94.50737 33895 ft 500 kts 310°
2026-05-05 00:55 11.80183 94.45385 33895 ft 500 kts 310°
2026-05-05 00:56 11.83977 94.40926 34012 ft 501 kts 310°
2026-05-05 00:56 11.87207 94.37482 34297 ft 500 kts 315°
2026-05-05 00:56 11.88867 94.35858 34455 ft 499 kts 316°
2026-05-05 00:56 11.91404 94.33436 34669 ft 499 kts 316°
2026-05-05 00:57 11.93938 94.31026 34862 ft 498 kts 316°
2026-05-05 00:57 11.96458 94.28604 35068 ft 497 kts 315°
2026-05-05 00:57 11.98964 94.26166 35265 ft 496 kts 315°
2026-05-05 00:57 12.01446 94.23724 35453 ft 496 kts 315°
2026-05-05 00:58 12.03921 94.21273 35664 ft 495 kts 315°
2026-05-05 00:58 12.06386 94.18824 35829 ft 494 kts 315°
2026-05-05 00:58 12.08859 94.16364 35896 ft 497 kts 314°
2026-05-05 00:59 12.13841 94.11403 35898 ft 501 kts 314°
2026-05-05 00:59 12.18795 94.06476 35898 ft 500 kts 314°
2026-05-05 01:00 12.23779 94.01521 35894 ft 499 kts 315°
2026-05-05 01:00 12.28780 93.96596 35894 ft 499 kts 315°
2026-05-05 01:01 12.33785 93.91686 35900 ft 499 kts 315°
2026-05-05 01:01 12.38782 93.86773 35896 ft 498 kts 315°